This is the latest recevied weather packets stored in our database for station/object KC3ULW-13. If no packets are shown the sender has not sent any weather packets the latest 10 day(s).
| Time | Temp. | Humidity | Pressure | Rain* | Wind** | Luminosity | Snow |
|---|---|---|---|---|---|---|---|
| 1777822303 | 11.67° C | 40% | 1020 hPa | 0 mm | - | 677 W/m² | - |
| 1777822000 | 11.11° C | 41% | 1020.1 hPa | 0 mm | - | 687 W/m² | - |
| 1777821698 | 11.11° C | 42% | 1020 hPa | 0 mm | - | 697 W/m² | - |
| 1777821396 | 10.56° C | 41% | 1019.9 hPa | 0 mm | - | 707 W/m² | - |
| 1777821092 | 11.11° C | 43% | 1020 hPa | 0 mm | - | 700 W/m² | - |
| 1777820789 | 10.56° C | 43% | 1020.5 hPa | 0 mm | - | 708 W/m² | - |
| 1777820485 | 10.56° C | 42% | 1020.2 hPa | 0 mm | - | 721 W/m² | - |
| 1777820182 | 10.56° C | 43% | 1020 hPa | 0 mm | - | 725 W/m² | - |
| 1777819880 | 10.56° C | 42% | 1020.1 hPa | 0 mm | - | 714 W/m² | - |
| 1777819577 | 10.56° C | 42% | 1020.3 hPa | 0 mm | - | 678 W/m² | - |
| 1777819274 | 10.56° C | 43% | 1020.2 hPa | 0 mm | - | 643 W/m² | - |
| 1777818971 | 10° C | 46% | 1020.2 hPa | 0 mm | - | 615 W/m² | - |
| 1777818668 | 10.56° C | 46% | 1020.1 hPa | 0 mm | - | 635 W/m² | - |
| 1777818365 | 10° C | 48% | 1020.2 hPa | 0 mm | - | 631 W/m² | - |
| 1777818062 | 10° C | 50% | 1020.4 hPa | 0 mm | - | 610 W/m² | - |
| 1777817758 | 9.44° C | 51% | 1020.5 hPa | 0 mm | - | 602 W/m² | - |
| 1777817456 | 9.44° C | 53% | 1020.3 hPa | 0 mm | - | 599 W/m² | - |
| 1777817151 | 10° C | 54% | 1020.3 hPa | 0 mm | - | 574 W/m² | - |
| 1777816850 | 8.89° C | 54% | 1020.4 hPa | 0 mm | - | 563 W/m² | - |
| 1777816547 | 8.89° C | 55% | 1020.5 hPa | 0 mm | - | 528 W/m² | - |
| 1777816244 | 8.89° C | 54% | 1020.4 hPa | 0 mm | - | 504 W/m² | - |
| 1777815941 | 8.89° C | 57% | 1020.6 hPa | 0 mm | - | 490 W/m² | - |
| 1777815638 | 8.33° C | 58% | 1020.6 hPa | 0 mm | - | 432 W/m² | - |
| 1777815335 | 8.89° C | 59% | 1020.6 hPa | 0 mm | - | 440 W/m² | - |
| 1777815033 | 7.78° C | 60% | 1020.6 hPa | 0 mm | - | 400 W/m² | - |
* Rain latest hour (hover to see other rain measurements)
** Current wind speed in m/s (hover to see current wind gust speed)